This is the latest recevied weather packets stored in our database for station/object WZ9ZZZ-1. If no packets are shown the sender has not sent any weather packets the latest 10 day(s).
| Time | Temp. | Humidity | Pressure | Rain* | Wind** | Luminosity | Snow |
|---|---|---|---|---|---|---|---|
| 1777556601 | 25° C | 90% | 1013.9 hPa | 0 mm | - | 110 W/m² | - |
| 1777556295 | 25° C | 91% | 1014 hPa | 0 mm | - | 104 W/m² | - |
| 1777555991 | 25° C | 91% | 1014.1 hPa | 0 mm | - | 101 W/m² | - |
| 1777555686 | 25° C | 91% | 1014.7 hPa | 0 mm | - | 99 W/m² | - |
| 1777555383 | 25° C | 91% | 1014.4 hPa | 0 mm | - | 96 W/m² | - |
| 1777555079 | 25° C | 91% | 1014.1 hPa | 0 mm | - | 85 W/m² | - |
| 1777554777 | 25° C | 92% | 1013.4 hPa | 0 mm | - | 84 W/m² | - |
| 1777554474 | 24.44° C | 92% | 1012.9 hPa | 0 mm | - | 92 W/m² | - |
| 1777554171 | 24.44° C | 92% | 1013.4 hPa | 0 mm | - | 96 W/m² | - |
| 1777553868 | 24.44° C | 93% | 1013.2 hPa | 0 mm | - | 93 W/m² | - |
| 1777553563 | 23.89° C | 93% | 1013.1 hPa | 0 mm | - | 75 W/m² | - |
| 1777553259 | 23.89° C | 93% | 1013 hPa | 0 mm | - | 63 W/m² | - |
| 1777552955 | 24.44° C | 93% | 1013.2 hPa | 0 mm | - | 52 W/m² | - |
| 1777552651 | 23.89° C | 93% | 1012.9 hPa | 0 mm | - | 46 W/m² | - |
| 1777552348 | 23.89° C | 93% | 1013.2 hPa | 0 mm | - | 55 W/m² | - |
| 1777552045 | 23.89° C | 93% | 1013.3 hPa | 0 mm | - | 58 W/m² | - |
| 1777551741 | 23.89° C | 93% | 1013.4 hPa | 0 mm | - | 44 W/m² | - |
| 1777551438 | 23.89° C | 93% | 1013.1 hPa | 0 mm | - | 34 W/m² | - |
| 1777551135 | 23.89° C | 93% | 1013.1 hPa | 0 mm | - | 25 W/m² | - |
| 1777550833 | 23.89° C | 93% | 1013.1 hPa | 0 mm | - | 18 W/m² | - |
| 1777550529 | 23.89° C | 93% | 1013.2 hPa | 0 mm | - | 13 W/m² | - |
| 1777550225 | 23.89° C | 93% | 1013.4 hPa | 0 mm | - | 8 W/m² | - |
| 1777549922 | 23.89° C | 93% | 1013.4 hPa | 0 mm | - | 5 W/m² | - |
| 1777549617 | 23.89° C | 93% | 1013.5 hPa | 0 mm | - | 2 W/m² | - |
| 1777549315 | 23.89° C | 93% | 1013.3 hPa | 0 mm | - | 0 W/m² | - |
* Rain latest hour (hover to see other rain measurements)
** Current wind speed in m/s (hover to see current wind gust speed)